User: anonymous   Login
Location: Unspecified
(0.0000°N, 0.0000°E)
Time: 20:52:16
(UTC+00:00)
Language:

SMOG-1 - Orbit

View from above orbital plane
View from above orbital plane
View from above satellite
View from above satellite

Ground track
Ground track

The orbit data is extracted from the following two-line orbital elements,

1 47964U 21022AJ  22268.26736790  .00008832  00000-0  52794-3 0  9998
2 47964  97.5185 167.2023 0018892 147.9522 212.2861 15.11156472 81954
Epoch (UTC): 25 September 2022 06:25:00
Eccentricity: 0.0018892
inclination: 97.5185°
perigee height: 519 km
apogee height: 546 km
right ascension of ascending node: 167.2023°
argument of perigee: 147.9522°
revolutions per day: 15.11156472
mean anomaly at epoch: 212.2861°
orbit number at epoch: 8195

The dashed part of the orbit path shows where the satellite is in the earth's shadow,  

DLR